Temp
11 11 12 12 12 13 13 13 13 13 13 13 13 13 13 13 13 13 14 15 15 14 14 14 14 14 14 14 14 15 18 19 19 18 19 17 19 17 17 18 17 17 17 18 18
11 11 11 12 12 13 13 13 13 13 13 13 13 13 13 13 13 13 16 15 15 15 14 14 13 13 14 14 14 17 17 18 18 18 19 18 18 19 19 19 19 18 18 18 17
11 11 11 11 12 13 13 13 13 13 13 13 13 13 13 13 12 15 15 15 14 14 14 13 14 14 15 14 15 15 17 17 17 16 16 17 18 17 19 20 19 19 17 17 16
11 11 11 12 12 12 13 13 13 13 13 13 13 12 12 12 16 15 15 15 15 14 13 14 13 14 16 16 15 16 16 16 16 15 16 17 16 18 17 17 14 13 12 12 12
12 12 12 12 12 12 13 13 13 13 13 13 12 12 12 12 13 15 16 15 14 14 14 13 14 15 16 16 15 16 16 15 15 15 15 14 17 16 13 11 9 8 9 7 7
12 12 12 12 12 12 12 13 13 13 13 12 12 12 12 14 14 14 14 14 14 14 13 14 14 15 16 16 16 16 15 16 15 15 15 16 16 16 11 9 7 6 4 3 3
11 11 12 12 12 12 12 12 12 12 12 12 12 12 12 14 14 14 14 14 14 14 14 14 14 15 15 15 14 15 16 17 16 15 16 15 14 10 9 7 5 4 3 2 1
11 11 11 12 12 12 12 12 12 12 12 12 12 11 12 13 14 13 13 13 13 13 13 14 14 14 15 14 14 16 16 18 16 15 14 15 13 7 6 6 4 3 2 1 -1
11 11 11 11 11 12 12 12 12 11 11 11 11 11 13 12 13 13 13 13 13 13 13 13 14 13 13 16 16 15 19 17 17 15 15 16 12 6 5 4 3 1 -0 -1 -2
10 11 11 11 11 11 12 11 11 10 10 10 10 11 12 12 12 13 12 13 13 13 12 13 13 15 15 16 18 18 16 16 17 16 16 16 9 6 3 3 1 -0 -2 -3 -4
10 10 11 11 11 11 11 10 10 9 10 12 12 12 12 12 12 12 12 12 13 13 14 12 14 15 16 16 16 16 16 17 16 15 16 16 8 5 3 1 -0 -2 -3 -4 -5
10 10 10 11 11 11 10 11 12 12 12 11 11 12 12 12 11 11 12 13 13 14 12 13 14 16 14 14 14 14 15 16 15 14 15 14 6 3 1 -1 -3 -3 -5 -5 -6
9 10 10 11 11 11 11 11 12 12 13 10 11 11 12 12 12 11 12 12 13 12 13 15 14 12 13 12 13 14 15 16 16 13 14 15 9 4 1 -0 -2 -4 -5 -6 -7
9 10 10 11 10 11 10 11 11 11 14 12 11 11 11 12 11 11 12 12 12 13 12 13 12 12 13 14 14 15 15 15 14 14 15 14 17 6 3 1 -1 -3 -5 -6 -7
9 9 9 10 10 9 10 11 11 11 13 12 11 11 11 12 11 10 11 12 13 12 12 13 11 11 12 13 13 14 12 13 13 14 13 14 15 4 4 3 -1 -3 -5 -7 -8
8 8 8 9 9 9 10 10 11 13 12 11 11 12 12 11 10 10 10 11 10 12 11 12 10 12 13 11 12 11 12 12 12 13 13 16 15 7 4 -2 -2 -4 -6 -7 -8
7 7 7 8 8 9 9 10 13 13 11 10 11 11 11 10 10 9 9 9 11 11 12 11 11 11 11 12 11 12 13 14 13 12 14 11 12 2 -3 -4 -5 -5 -7 -8 -9
7 7 7 7 8 8 8 11 12 10 9 8 9 9 10 9 8 8 8 8 7 8 11 13 11 10 10 11 12 12 14 14 13 13 14 11 13 -0 -4 -5 -6 -7 -8 -9 -9
7 7 7 7 7 8 9 11 10 8 7 8 9 10 9 8 9 8 8 7 6 6 10 10 11 8 9 9 10 11 12 11 12 11 12 12 -2 -3 -3 -4 -6 -7 -8 -9 -10
7 7 7 7 7 8 10 8 6 4 5 6 10 8 10 8 9 9 7 5 5 5 6 7 10 7 8 8 9 10 8 11 12 11 12 12 8 3 -2 -4 -5 -7 -9 -10 -11
7 8 7 7 7 8 9 6 5 3 4 6 7 7 6 7 7 7 6 3 4 4 5 5 7 8 7 5 6 9 9 8 9 9 12 12 7 -3 -4 -6 -7 -8 -10 -11 -11
7 9 7 7 7 5 5 4 3 2 2 4 4 5 5 4 5 5 4 3 2 3 4 3 4 7 3 2 3 3 3 5 9 9 6 6 4 -7 -7 -8 -8 -10 -11 -12 -12
8 7 7 7 8 4 3 1 1 2 1 2 2 2 2 2 4 3 2 0 1 3 3 3 3 5 4 3 3 1 -0 1 2 2 4 7 2 -9 -9 -9 -10 -11 -12 -13 -14
7 8 5 5 1 4 3 2 1 0 0 0 1 1 2 2 2 2 1 0 -0 1 1 2 2 2 6 3 2 1 -1 -1 -0 2 3 3 -6 -9 -10 -10 -11 -12 -13 -15 -15
5 0 -0 3 2 2 3 2 2 2 0 0 1 1 1 2 1 1 0 0 -0 -1 -0 1 -0 -0 -0 1 0 -3 -3 -3 -2 -6 -0 -6 -7 -11 -13 -13 -14 -15 -15 -15 -16
1 2 -0 -0 -0 2 1 0 1 -1 0 0 1 -0 0 1 0 0 0 0 -0 -0 -0 -0 -1 -1 -2 -2 -2 -4 -6 -5 -6 -9 -10 -11 -9 -14 -15 -15 -13 -14 -16 -16 -17
2 1 2 -1 0 2 -0 0 -0 -0 -1 -1 -0 -0 -0 -2 -2 -2 -2 -2 -2 -1 -1 -1 -1 -2 -1 -2 -3 -3 -8 -7 -8 -10 -10 -5 -12 -14 -13 -14 -15 -16 -17 -17 -18
Height
1487 1485 1481 1479 1477 1477 1475 1477 1479 1481 1481 1484 1485 1486 1488 1490 1491 1490 1487 1492 1494 1495 1496 1500 1502 1505 1508 1511 1511 1511 1509 1505 1504 1507 1502 1505 1504 1505 1506 1507 1507 1507 1508 1508 1508
1487 1483 1480 1479 1475 1474 1474 1475 1477 1479 1481 1482 1483 1485 1486 1489 1488 1486 1487 1488 1491 1492 1494 1498 1501 1504 1508 1510 1510 1509 1507 1503 1505 1506 1504 1506 1506 1506 1506 1506 1507 1507 1507 1507 1508
1485 1482 1479 1475 1473 1472 1472 1473 1475 1477 1479 1480 1481 1483 1485 1487 1488 1482 1482 1484 1487 1490 1495 1498 1501 1504 1507 1509 1508 1508 1504 1505 1505 1506 1508 1507 1506 1507 1507 1506 1508 1508 1509 1508 1509
1483 1480 1478 1474 1472 1470 1470 1471 1473 1475 1477 1478 1480 1482 1484 1485 1485 1480 1481 1481 1484 1487 1493 1496 1501 1503 1504 1504 1505 1506 1505 1506 1505 1506 1507 1507 1507 1508 1510 1513 1512 1511 1510 1509 1512
1481 1477 1475 1474 1470 1469 1469 1469 1471 1473 1475 1476 1478 1480 1482 1484 1482 1479 1477 1478 1482 1487 1491 1494 1498 1500 1500 1501 1504 1504 1503 1505 1504 1504 1506 1507 1507 1510 1516 1516 1511 1509 1506 1509 1511
1478 1476 1474 1472 1470 1469 1468 1469 1470 1471 1473 1474 1476 1479 1481 1483 1479 1478 1478 1480 1483 1487 1491 1494 1496 1499 1499 1500 1500 1501 1503 1501 1501 1501 1503 1504 1508 1509 1521 1519 1512 1511 1512 1512 1512
1475 1474 1473 1471 1470 1468 1467 1468 1468 1470 1471 1473 1475 1477 1479 1479 1477 1478 1479 1481 1484 1487 1490 1493 1495 1498 1497 1499 1500 1502 1500 1496 1497 1498 1499 1502 1511 1524 1526 1522 1517 1517 1518 1517 1516
1474 1472 1471 1470 1469 1468 1467 1466 1467 1468 1470 1471 1473 1476 1475 1474 1475 1478 1479 1481 1485 1488 1491 1494 1495 1496 1497 1498 1500 1498 1498 1490 1494 1496 1498 1500 1513 1529 1527 1524 1523 1523 1523 1521 1519
1471 1469 1468 1468 1467 1467 1466 1465 1466 1466 1468 1471 1473 1474 1474 1473 1474 1476 1479 1482 1485 1488 1491 1493 1495 1496 1497 1495 1495 1496 1486 1490 1492 1495 1495 1497 1513 1531 1530 1528 1528 1528 1527 1525 1523
1467 1466 1465 1465 1465 1465 1465 1465 1466 1467 1469 1471 1472 1476 1472 1471 1471 1474 1478 1482 1484 1487 1491 1494 1495 1492 1493 1491 1485 1485 1491 1492 1490 1495 1494 1497 1520 1530 1532 1531 1532 1532 1531 1529 1526
1464 1463 1462 1462 1462 1462 1464 1465 1470 1471 1467 1465 1466 1467 1467 1469 1471 1474 1477 1481 1484 1487 1487 1491 1490 1485 1484 1485 1487 1487 1488 1488 1491 1493 1493 1495 1518 1531 1535 1534 1535 1536 1536 1534 1532
1460 1459 1458 1458 1458 1459 1460 1461 1461 1463 1463 1463 1464 1465 1466 1468 1471 1474 1477 1481 1482 1482 1487 1490 1484 1479 1485 1488 1489 1490 1489 1487 1491 1494 1495 1497 1524 1535 1537 1540 1541 1541 1540 1538 1535
1455 1454 1454 1454 1454 1455 1456 1458 1459 1460 1461 1462 1462 1464 1467 1469 1469 1472 1476 1477 1479 1483 1483 1479 1481 1483 1484 1489 1490 1488 1486 1484 1486 1495 1495 1494 1510 1528 1541 1542 1544 1544 1545 1543 1539
1450 1450 1450 1450 1454 1451 1453 1455 1457 1459 1458 1461 1462 1462 1464 1466 1470 1471 1474 1477 1479 1478 1483 1481 1483 1483 1484 1484 1484 1483 1481 1483 1489 1492 1486 1489 1475 1520 1536 1540 1545 1548 1548 1547 1543
1446 1446 1446 1446 1447 1449 1451 1452 1455 1458 1461 1462 1461 1463 1463 1466 1469 1472 1473 1475 1475 1478 1481 1477 1481 1483 1483 1480 1481 1479 1484 1485 1488 1487 1489 1487 1484 1523 1528 1532 1547 1552 1552 1550 1547
1442 1443 1443 1443 1445 1446 1448 1451 1455 1458 1460 1458 1459 1460 1462 1466 1469 1471 1473 1474 1477 1478 1479 1477 1480 1480 1478 1481 1482 1485 1485 1488 1490 1488 1488 1470 1474 1509 1527 1549 1551 1554 1554 1552 1550
1440 1441 1441 1442 1444 1445 1447 1452 1453 1450 1454 1459 1458 1459 1462 1467 1470 1472 1476 1478 1476 1477 1474 1477 1478 1480 1481 1480 1484 1484 1480 1481 1487 1492 1475 1484 1483 1531 1552 1556 1557 1557 1556 1555 1552
1440 1441 1441 1441 1443 1445 1448 1451 1448 1453 1455 1460 1460 1461 1462 1468 1474 1476 1479 1480 1486 1483 1476 1469 1479 1481 1483 1480 1476 1478 1475 1472 1477 1476 1467 1483 1474 1536 1555 1557 1558 1559 1558 1556 1553
1441 1442 1440 1440 1442 1445 1449 1445 1445 1455 1461 1459 1460 1457 1465 1469 1469 1475 1479 1482 1488 1489 1476 1476 1476 1484 1485 1484 1483 1481 1479 1481 1475 1480 1477 1471 1542 1551 1554 1555 1558 1558 1558 1557 1555
1442 1442 1440 1440 1442 1446 1446 1452 1460 1464 1464 1463 1453 1462 1459 1467 1466 1470 1479 1491 1490 1492 1490 1488 1476 1488 1487 1486 1485 1482 1488 1480 1478 1479 1472 1464 1486 1513 1545 1552 1557 1558 1559 1558 1556
1442 1442 1441 1441 1444 1446 1446 1457 1463 1467 1466 1463 1462 1464 1468 1468 1470 1476 1483 1495 1495 1494 1492 1492 1487 1487 1488 1497 1495 1487 1485 1488 1485 1485 1467 1460 1486 1544 1550 1557 1558 1560 1560 1559 1556
1441 1441 1441 1442 1446 1453 1454 1461 1465 1468 1467 1468 1469 1470 1471 1477 1477 1481 1486 1494 1498 1497 1495 1499 1496 1489 1505 1511 1508 1507 1507 1502 1482 1482 1498 1493 1503 1556 1558 1560 1560 1561 1561 1559 1557
1439 1440 1441 1442 1444 1455 1464 1466 1469 1469 1472 1471 1474 1476 1478 1481 1482 1486 1493 1502 1500 1499 1501 1502 1501 1496 1499 1508 1508 1513 1520 1517 1513 1513 1503 1489 1507 1559 1561 1561 1562 1562 1561 1559 1557
1438 1439 1443 1443 1450 1452 1459 1466 1470 1473 1475 1477 1479 1479 1479 1484 1486 1491 1496 1502 1502 1503 1504 1503 1506 1505 1489 1505 1511 1516 1524 1525 1521 1516 1507 1503 1542 1559 1561 1562 1562 1562 1561 1559 1556
1439 1448 1450 1451 1455 1456 1458 1465 1469 1473 1477 1478 1480 1482 1482 1485 1490 1494 1499 1503 1505 1506 1506 1507 1512 1515 1515 1515 1518 1528 1529 1531 1528 1540 1523 1543 1546 1561 1566 1565 1563 1561 1559 1557 1554
1442 1447 1452 1458 1459 1459 1463 1470 1471 1478 1478 1480 1479 1486 1486 1488 1493 1495 1498 1501 1504 1508 1509 1511 1515 1516 1521 1522 1523 1532 1540 1538 1541 1550 1553 1558 1554 1566 1565 1564 1562 1560 1557 1555 1553
1447 1449 1450 1462 1462 1461 1469 1470 1473 1477 1484 1484 1485 1487 1490 1497 1498 1500 1502 1506 1508 1509 1511 1511 1515 1518 1517 1524 1526 1529 1547 1543 1546 1552 1554 1538 1561 1564 1562 1561 1558 1555 1554 1554 1551
Wind_Speed
12 12 11 8 7 7 7 9 9 11 10 9 9 9 9 10 11 15 18 15 11 11 16 16 14 13 15 9 6 4 4 5 3 4 2 2 2 1 1 2 2 2 1 1 1
11 12 12 11 8 7 8 8 8 10 10 9 9 8 7 9 10 18 11 10 13 17 20 20 16 16 9 9 5 7 5 5 0 1 1 3 1 1 2 1 2 3 7 7 6
11 12 13 15 11 6 8 9 9 10 10 9 9 8 8 7 7 7 5 14 15 17 18 17 15 14 10 8 8 5 4 3 1 5 5 3 2 2 3 3 6 10 7 7 6
11 12 13 14 13 7 5 8 10 11 11 10 9 8 8 7 3 3 7 8 18 19 20 21 17 12 8 9 10 6 7 6 2 3 1 2 4 6 6 13 13 11 11 9 9
12 12 12 13 13 7 3 5 9 10 11 10 9 10 9 6 8 8 5 15 20 23 23 19 20 14 10 9 7 9 6 6 8 8 8 4 7 4 17 17 21 20 20 19 16
13 12 12 12 12 7 3 3 7 9 10 10 10 11 9 6 5 3 6 19 21 23 21 20 14 12 7 6 10 5 6 8 8 8 5 5 6 2 17 14 24 25 26 23 20
13 12 11 10 10 8 2 1 4 8 10 10 10 10 9 7 2 6 11 14 19 19 19 18 11 12 9 6 4 3 5 6 5 3 5 10 12 12 11 15 24 25 23 24 24
13 12 11 9 8 7 4 3 4 7 10 10 10 9 5 6 11 8 13 15 16 15 12 14 11 9 3 6 3 4 3 4 3 2 2 7 11 12 15 16 23 23 23 23 26
13 12 11 9 7 6 3 1 5 8 10 10 10 7 3 5 9 14 16 14 16 11 9 14 12 4 5 5 4 3 3 4 3 1 4 2 13 11 14 17 21 23 24 24 25
14 12 10 9 7 5 2 4 7 9 12 10 6 5 6 4 9 16 16 14 13 14 9 7 3 6 6 8 6 6 5 3 2 3 3 11 12 10 16 19 21 23 24 26 28
14 11 10 8 7 5 6 10 7 3 12 5 5 2 7 8 11 16 17 19 13 9 7 5 8 11 13 13 2 4 2 4 2 3 4 6 11 12 14 21 22 24 25 26 26
14 12 10 9 8 8 12 7 7 3 3 13 5 5 6 10 5 16 20 9 9 8 7 5 14 9 4 8 8 7 8 11 4 4 8 8 10 11 17 21 23 23 24 26 26
14 13 10 9 9 11 15 13 7 4 2 2 6 7 6 8 3 17 19 7 5 7 12 10 2 5 8 7 10 10 12 9 6 5 3 5 8 6 11 18 20 22 21 24 25
14 12 9 8 8 12 14 13 8 5 3 5 4 4 8 8 3 13 15 5 3 9 8 7 4 5 7 6 10 10 11 11 7 6 5 10 3 6 9 12 18 20 22 23 24
12 9 7 10 6 13 9 11 9 5 3 4 4 6 8 5 11 3 9 3 6 6 6 3 6 7 6 5 11 0 3 7 5 7 3 10 5 6 9 6 12 17 19 20 21
7 4 3 10 10 11 11 13 10 4 6 4 3 6 5 3 3 5 3 5 3 3 1 1 1 1 1 2 7 9 6 5 3 2 6 11 12 6 1 5 8 13 16 19 21
4 1 2 9 10 13 15 14 4 5 1 4 3 4 6 3 4 3 3 4 1 5 7 3 2 1 1 4 4 6 7 3 4 5 5 1 8 8 7 8 9 10 14 17 19
10 7 3 5 10 14 16 2 5 2 1 1 3 7 4 2 3 3 5 4 6 1 2 5 4 0 4 2 1 10 8 4 5 4 2 4 5 6 8 9 8 10 11 15 18
5 3 6 3 11 15 6 6 1 1 1 4 3 4 3 3 3 4 3 3 4 5 2 3 4 2 4 4 3 5 5 2 3 1 4 4 5 5 6 6 7 9 12 15 17
3 0 9 7 12 13 2 4 2 3 2 1 5 2 5 4 5 4 5 2 3 6 4 2 2 3 4 1 9 3 2 3 3 4 8 5 5 5 7 3 5 9 12 14 16
2 1 5 11 13 4 2 4 4 6 2 3 2 3 4 3 3 3 4 4 4 3 6 1 2 3 1 8 5 3 1 2 2 2 5 6 4 3 5 4 4 7 9 13 16
3 2 1 12 4 4 3 3 3 4 8 5 4 5 3 3 4 3 4 5 6 2 3 3 2 2 3 6 6 3 3 2 4 4 0 3 3 4 5 4 4 5 8 11 14
3 3 5 9 3 3 3 4 6 3 5 4 3 5 4 3 4 4 5 2 8 3 3 1 0 3 2 2 2 4 4 2 3 2 4 4 2 3 3 4 4 6 8 11 12
3 2 7 8 6 5 6 3 4 6 5 6 4 2 3 3 7 5 4 3 4 5 7 2 2 2 2 4 3 3 2 3 2 1 2 4 4 5 4 6 8 8 10 9 10
4 3 2 3 6 7 4 3 5 3 4 6 4 7 3 4 3 4 3 4 7 5 4 2 3 1 2 3 3 3 2 0 4 1 5 3 2 4 2 6 10 10 11 9 11
4 3 7 5 3 5 5 2 5 5 4 3 6 7 7 4 4 4 4 2 2 5 3 2 3 2 2 5 3 3 2 3 3 2 2 1 1 1 6 6 9 10 8 7 12
9 8 4 6 2 1 2 3 5 8 7 6 9 8 11 8 7 8 10 9 5 2 2 1 4 2 2 4 4 3 2 2 2 3 3 3 4 6 6 12 14 12 5 6 17
Wind_Direction
5 5 358 337 303 274 252 235 232 231 222 218 216 217 220 232 238 241 240 246 227 219 187 187 176 174 168 179 171 158 232 222 218 205 61 110 216 153 223 160 175 207 316 206 16
2 5 5 354 322 278 254 242 229 229 228 217 214 220 222 235 249 256 256 227 221 199 185 181 166 162 172 182 176 211 231 204 35 260 6 32 337 7 250 139 219 258 272 274 269
358 359 359 2 349 297 252 237 229 227 229 222 213 215 218 232 274 261 208 226 210 191 195 180 169 164 178 179 186 185 231 200 214 236 280 322 309 340 329 314 353 347 0 326 277
350 353 355 359 0 338 267 236 227 226 225 218 211 205 206 203 235 210 271 227 189 190 189 181 171 174 186 194 190 212 232 237 251 179 178 296 320 323 348 354 352 14 25 27 30
339 345 350 352 1 356 312 235 226 222 218 210 204 198 190 214 252 287 295 175 171 171 180 174 177 183 192 195 165 227 238 226 245 252 259 265 277 6 48 48 58 64 64 58 55
333 335 339 345 351 357 354 227 216 212 206 201 197 195 196 225 247 268 147 161 172 174 183 187 194 188 173 185 204 181 230 251 262 251 215 207 63 123 33 46 59 56 54 51 47
328 326 326 332 337 345 328 225 202 201 198 193 191 195 217 231 227 186 174 178 178 182 185 194 212 181 157 163 182 188 258 251 229 227 191 160 70 58 25 45 56 51 48 44 38
318 318 316 317 323 331 319 246 215 191 190 185 185 193 239 227 215 186 173 171 180 188 204 198 195 181 183 130 135 217 243 230 113 150 88 199 121 38 28 48 51 45 40 36 31
308 306 305 303 306 312 308 236 191 174 175 176 180 188 233 206 200 193 182 179 175 188 192 189 166 165 152 202 213 203 221 201 157 94 132 244 119 54 41 52 51 42 37 32 25
303 300 295 292 291 288 268 146 151 158 157 165 181 205 219 191 180 181 176 179 159 163 131 166 172 201 191 197 226 191 199 208 187 128 153 106 106 67 47 56 51 43 36 32 28
304 298 290 278 268 248 185 133 126 148 180 202 200 154 146 151 150 170 171 165 153 161 178 161 210 214 209 216 212 121 170 225 158 145 316 50 97 58 49 52 48 43 37 33 28
301 292 281 270 250 228 203 197 214 164 194 222 215 189 154 151 123 165 163 162 165 184 145 172 235 229 199 195 209 223 244 247 261 252 218 142 99 75 60 60 53 44 36 28 22
298 290 279 264 240 222 219 219 230 212 248 184 208 211 178 175 123 172 176 163 180 170 195 217 61 148 177 173 203 225 232 231 244 149 242 215 170 147 82 67 54 45 39 33 26
296 288 276 250 230 214 207 214 207 188 249 159 193 180 165 160 108 170 176 168 152 205 182 241 148 159 170 204 205 241 221 238 215 202 242 204 235 141 132 76 47 37 32 26 22
293 283 272 213 199 179 193 186 181 158 248 124 128 144 144 161 126 100 170 154 179 166 184 146 162 169 193 218 194 247 124 179 188 209 231 199 256 101 176 69 37 34 30 26 22
284 277 260 195 188 182 165 162 147 189 233 133 122 155 140 63 70 114 137 104 99 150 230 241 351 260 5 103 176 146 112 98 110 192 248 224 220 134 89 15 35 31 29 22 18
173 119 163 175 185 172 158 149 166 226 110 147 137 146 116 91 87 57 53 54 196 181 203 171 153 93 38 182 180 200 181 198 205 196 247 101 212 64 95 67 54 35 25 20 17
137 73 131 185 185 170 160 175 200 78 103 78 118 105 129 139 72 95 123 124 51 317 146 191 174 151 3 12 234 195 223 228 244 212 150 155 230 116 106 86 67 48 32 22 17
136 94 22 177 174 170 174 207 47 104 63 158 124 156 129 142 126 129 84 112 47 4 260 184 167 334 51 339 314 150 204 360 285 202 259 154 110 153 137 90 55 42 28 22 16
151 330 20 140 157 160 192 105 100 33 350 216 199 295 160 143 158 150 165 30 115 26 317 114 186 29 357 312 60 1 39 181 207 247 245 202 170 118 168 93 43 25 22 18 14
212 151 29 135 141 108 141 97 113 47 9 13 122 116 84 120 88 105 103 65 18 46 52 37 286 111 248 18 355 352 112 48 334 291 258 271 117 62 108 68 27 22 19 6 1
213 162 51 156 71 47 84 60 76 18 33 49 74 66 80 66 86 97 118 45 2 356 51 25 47 78 70 93 52 46 52 360 249 185 317 315 144 80 89 51 19 7 0 359 359
176 113 53 180 145 110 111 80 61 42 39 41 76 40 55 87 110 98 93 64 27 60 82 139 152 138 175 211 176 57 24 37 80 38 228 260 111 127 70 45 38 356 350 348 353
149 132 40 76 67 117 131 103 109 43 67 57 75 95 103 78 37 122 110 56 29 51 47 107 83 323 326 63 76 129 60 31 34 219 270 254 145 184 16 356 347 341 338 337 345
65 84 54 62 47 90 84 94 119 100 68 44 77 56 63 110 90 100 98 119 58 22 51 64 124 113 116 52 80 94 112 218 225 50 247 65 57 139 342 300 310 316 325 326 339
74 116 78 76 53 69 20 75 119 113 19 53 113 74 52 92 45 146 129 100 84 57 76 28 124 120 115 56 115 120 71 99 98 116 139 157 142 76 305 309 307 315 309 318 336
66 86 103 25 66 77 40 129 123 132 55 64 123 108 89 86 81 82 78 77 89 92 106 94 137 158 158 131 140 185 30 6 86 70 344 270 61 345 335 333 324 319 320 329 334